This is the latest recevied weather packets stored in our database for station/object N3EDS. If no packets are shown the sender has not sent any weather packets the latest 10 day(s).
| Time | Temp. | Humidity | Pressure | Rain* | Wind** | Luminosity | Snow |
|---|---|---|---|---|---|---|---|
| 1777761637 | 5° C | 72% | 1014.5 hPa | 0 mm | - | 76 W/m² | - |
| 1777761335 | 5° C | 72% | 1014.5 hPa | 0 mm | - | 69 W/m² | - |
| 1777761033 | 5° C | 72% | 1014.3 hPa | 0 mm | - | 88 W/m² | - |
| 1777760730 | 5° C | 71% | 1014.4 hPa | 0 mm | - | 109 W/m² | - |
| 1777760426 | 5.56° C | 71% | 1014.2 hPa | 0 mm | - | 93 W/m² | - |
| 1777760122 | 5.56° C | 71% | 1014.3 hPa | 0 mm | - | 111 W/m² | - |
| 1777759820 | 5.56° C | 73% | 1014.1 hPa | 0 mm | - | 132 W/m² | - |
| 1777759515 | 5.56° C | 75% | 1014 hPa | 0 mm | - | 135 W/m² | - |
| 1777759212 | 5.56° C | 74% | 1014.1 hPa | 0 mm | - | 126 W/m² | - |
| 1777758910 | 5.56° C | 74% | 1014.2 hPa | 0 mm | - | 130 W/m² | - |
| 1777758606 | 5.56° C | 74% | 1014.3 hPa | 0 mm | - | 128 W/m² | - |
| 1777758303 | 5.56° C | 71% | 1014.1 hPa | 0 mm | - | 131 W/m² | - |
| 1777758000 | 6.11° C | 71% | 1014.1 hPa | 0 mm | - | 71 W/m² | - |
| 1777757697 | 6.11° C | 70% | 1013.8 hPa | 0 mm | - | 119 W/m² | - |
| 1777757395 | 5.56° C | 71% | 1014 hPa | 0 mm | - | 105 W/m² | - |
| 1777757093 | 6.11° C | 70% | 1014 hPa | 0 mm | - | 104 W/m² | - |
| 1777756790 | 6.11° C | 70% | 1013.9 hPa | 0 mm | - | 113 W/m² | - |
| 1777756486 | 6.11° C | 69% | 1014 hPa | 0 mm | - | 128 W/m² | - |
| 1777756184 | 6.11° C | 68% | 1013.8 hPa | 0 mm | - | 105 W/m² | - |
| 1777755880 | 6.11° C | 67% | 1013.9 hPa | 0 mm | - | 94 W/m² | - |
| 1777755578 | 6.11° C | 68% | 1013.7 hPa | 0 mm | - | 72 W/m² | - |
| 1777755274 | 6.11° C | 68% | 1013.7 hPa | 0 mm | - | 108 W/m² | - |
| 1777754971 | 6.67° C | 67% | 1013.7 hPa | 0 mm | - | 121 W/m² | - |
| 1777754668 | 6.67° C | 67% | 1013.8 hPa | 0 mm | - | 176 W/m² | - |
| 1777754366 | 6.67° C | 67% | 1013.9 hPa | 0 mm | - | 170 W/m² | - |
* Rain latest hour (hover to see other rain measurements)
** Current wind speed in m/s (hover to see current wind gust speed)